Location: Young's Pond
(41.2695°N, 72.7766°W)
Time: 02:42:03
(UTC-05:00)

Daily predictions for brighter satellites

Satellite Brightness Start Highest point End
(mag) Time Altitude Azimuth Time Altitude Azimuth Time Altitude Azimuth
ATLAS 5 CENTAUR R/B 4.2 03:09:56 20° NNE 03:09:56 20° NNE 03:11:32 10° NNE
Cosmos 1943 Rocket 3.7 03:15:09 31° NE 03:15:09 31° NE 03:17:57 10° NNE
CZ-4C R/B 3.6 03:15:30 33° E 03:15:30 33° E 03:19:34 10° NE
ADEOS II 3.4 03:17:01 10° NNE 03:21:08 37° ENE 03:21:08 37° ENE
Lacrosse 5 3.7 03:25:31 27° NE 03:25:31 27° NE 03:27:49 10° NE
Okean O Rocket 4.2 03:25:37 10° NNE 03:26:29 16° NNE 03:26:29 16° NNE
CZ-4B R/B 3.7 03:31:35 10° NNE 03:36:54 59° E 03:36:54 59° E
ATLAS CENTAUR R/B 3.8 03:42:29 58° SSW 03:42:29 58° SSW 03:56:01 10° SSE
ADEOS Rocket 4.4 03:38:37 10° N 03:41:51 27° NNW 03:41:51 27° NNW
Nadezhda 2 Rocket 4.3 03:48:12 10° N 03:54:21 89° E 04:00:30 10° S
Cosmos 1954 Rocket 4.1 03:57:43 70° ESE 03:57:43 70° ESE 04:02:35 10° SSE
USA 234 3.8 03:52:08 10° NE 03:58:28 51° SE 04:01:04 33° S
Lacrosse 5 rocket 3.4 04:04:31 19° NNE 04:04:40 19° NNE 04:07:19 10° ENE
Cosmos 1420 Rocket 4.4 04:03:34 43° SSE 04:04:57 58° ESE 04:10:02 10° NNE
Cosmos 1782 Rocket 4.2 04:00:37 10° N 04:07:49 22° SSE 04:09:25 10° SSE
Cosmos 1656 Rocket 3.6 04:10:08 72° SW 04:10:46 86° WNW 04:16:29 10° NNE
IRS-1C Rocket 4.4 04:06:10 10° N 04:10:27 54° NNW 04:10:27 54° NNW
GEOS 3 Rocket 3.7 04:08:32 10° SE 04:13:37 73° NE 04:16:01 32° NNW
ATLAS 3B R/B 3.7 04:07:21 10° S 04:14:32 48° ESE 04:21:31 10° NE
Meteor 1-14 Rocket 4.1 04:14:44 10° N 04:20:33 90° W 04:26:12 10° S
Cosmos 1023 Rocket 4.4 04:15:36 10° NNW 04:20:53 87° WSW 04:26:10 10° SSE
Cosmos 1782 4.1 04:20:07 10° SSE 04:23:49 39° E 04:27:33 10° NNE
Cosmos 2369 Rocket 4.0 04:26:32 17° NNW 04:26:32 17° NNW 04:28:55 10° N
PAYLOAD B 4.4 04:20:48 10° N 04:26:02 49° WNW 04:26:02 49° WNW
Cosmos 2219 3.1 04:21:52 10° NNW 04:27:35 90° ENE 04:33:13 10° SSE
CZ-4B DEB 4.3 04:22:39 10° N 04:28:01 52° WNW 04:28:22 51° W
Cosmos 2227 Rocket 4.0 04:23:33 10° N 04:28:35 31° ENE 04:33:34 10° ESE
Meteor 2-10 Rocket 3.4 04:31:13 57° W 04:31:32 58° WNW 04:36:34 10° N
Okean-O 2.7 04:27:09 10° NNE 04:31:35 78° ESE 04:34:38 20° S
Meteor 1-26 Rocket 4.2 04:30:17 45° SW 04:31:45 60° WNW 04:37:16 10° N
Cosmos 1452 Rocket 3.7 04:33:11 48° WNW 04:33:20 48° WNW 04:38:28 10° N
Cosmos 1607 4.3 04:29:05 14° SSW 04:34:22 60° ESE 04:40:26 10° NE
Cosmos 1244 Rocket 4.4 04:29:37 10° NNW 04:35:42 58° W 04:41:42 10° S
Meteor 1-25 Rocket 4.3 04:30:18 10° N 04:36:11 87° E 04:42:01 10° S
Thor Agena Rocket 3.5 04:32:44 10° SSE 04:37:56 83° ENE 04:43:06 10° NNW
Cosmos 1703 Rocket 4.5 04:40:24 32° NW 04:40:24 32° NW 04:43:15 10° N
Okean 2 Rocket 2.9 04:35:02 10° N 04:39:25 76° W 04:43:49 10° S
Tiangong 1 1.8 04:40:32 46° NE 04:40:32 46° NE 04:42:49 10° E
Delta 2 Rocket 4.3 04:39:31 36° SSW 04:40:33 41° S 04:45:19 10° ESE
Meteor 1-31 Rocket 2.6 04:36:52 10° N 04:40:46 82° WNW 04:41:56 44° SSW
SL-08 R/B 4.4 04:38:06 10° N 04:44:27 78° W 04:50:46 10° S
Cosmos 1741 Rocket 3.9 04:40:43 10° NNW 04:45:59 86° WSW 04:51:15 10° SSE
ERS-2 3.6 04:43:57 10° N 04:45:50 24° NNW 04:45:50 24° NNW
ATLAS 5 CENTAUR R/B 3.7 04:51:29 16° NW 04:51:59 16° NNW 04:55:16 10° N
Cosmos 614 Rocket 3.9 04:47:47 10° NNW 04:52:49 59° WSW 04:57:50 10° S
Cosmos 1140 Rocket 3.7 04:47:57 10° NNW 04:52:54 44° WSW 04:57:52 10° S
Cosmos 1943 Rocket 3.6 04:56:41 19° NW 04:56:43 19° NW 05:00:38 10° N
Cosmos 2151 Rocket 3.6 04:55:01 10° N 04:59:33 82° E 05:04:00 10° S
ADEOS II 3.0 04:57:08 10° N 05:01:28 27° WNW 05:02:05 26° WNW
S3M 4.0 04:56:26 10° SSW 05:02:39 58° W 05:08:49 10° N
CZ-4C R/B 2.9 05:00:42 28° W 05:02:46 37° NW 05:08:22 10° NNE
Okean O Rocket 3.8 05:03:39 10° NNW 05:03:57 11° NW 05:03:57 11° NW
Lacrosse 5 3.5 05:04:44 17° NW 05:06:34 20° NNW 05:10:17 10° NNE
COSMO-SKYMED 1 2.5 05:03:28 10° SSE 05:07:48 88° ENE 05:12:10 10° NNW
Meteor 1-10 Rocket 4.1 05:02:21 10° SSW 05:07:55 79° W 05:13:38 10° N
Cosmos 1553 Rocket 4.1 05:02:05 10° SSW 05:08:05 50° WNW 05:14:14 10° N
Radarsat Rocket 4.3 05:04:20 10° NNE 05:11:29 86° ESE 05:17:45 10° SSW
Okean 1-7 4.0 05:14:32 24° W 05:15:15 25° WNW 05:18:49 10° NNW
Meteor 1-28 Rocket 3.3 05:11:40 10° SSE 05:15:23 77° ENE 05:19:09 10° N
CZ-4B R/B 4.5 05:13:11 10° NNW 05:17:15 21° WNW 05:18:49 19° W
USA 81 4.0 05:13:39 10° SSW 05:18:50 60° W 05:24:04 10° N
CZ-4 R/B 4.1 05:19:15 10° NE 05:22:37 24° E 05:25:56 10° SSE
ISS -0.2 05:23:47 10° SSE 05:25:14 12° SE 05:26:42 10° ESE
Gblst 52 Del rocket 4.4 05:20:38 11° SW 05:26:13 86° SE 05:32:40 10° NE
COSMOS 2455 3.6 05:22:52 10° S 05:28:44 57° ESE 05:34:37 10° NE
Cosmos 2082 3.8 05:25:49 10° NNW 05:31:31 83° ENE 05:37:09 10° SSE
Cosmos 1536 3.3 05:35:36 10° N 05:39:36 67° E 05:43:35 10° SSE
Cosmos 1709 Rocket 3.9 05:33:36 10° N 05:39:41 74° W 05:45:49 10° S
Ariane Rocket 3.0 05:36:19 10° NNE 05:41:26 89° W 05:46:30 10° SSW
USA 234 3.6 05:35:11 10° NE 05:41:28 51° NNW 05:47:43 10° WSW
Meteor 1-27 Rocket 3.8 05:35:44 10° SSW 05:41:31 70° W 05:47:26 10° N
Cosmos 1606 3.6 05:39:20 10° SW 05:42:41 28° WNW 05:46:06 10° NNW
Lacrosse 5 rocket 1.0 05:40:35 10° NW 05:44:09 59° SW 05:47:41 10° SSE
NOSS 3-2 (A) 4.4 05:40:12 10° SSW 05:45:58 53° ESE 05:52:16 10° NE
Cosmos 1300 Rocket 3.6 05:42:22 10° NNW 05:46:45 61° W 05:51:03 10° S
USA 238 DEB 3.8 05:40:15 10° SW 05:47:15 75° NW 05:54:18 10° NNE
USA 238 3.8 05:40:20 10° SW 05:47:20 76° NW 05:54:24 10° NNE
Cosmos 2369 3.7 05:42:29 10° SSW 05:48:06 71° WNW 05:53:47 10° NNE
Cosmos 1602 4.0 05:44:30 10° NNW 05:48:19 48° W 05:52:08 10° SSW
Abrixas 3.8 05:46:04 10° NW 05:48:42 31° NNE 05:51:19 10° E
Cosmos 1975 Rocket 4.1 05:44:41 10° S 05:48:56 51° E 05:53:10 10° NNE
Okean 3 3.5 05:45:46 10° S 05:50:04 89° SE 05:54:25 10° N
Cosmos 2297 Rocket 2.2 05:46:33 10° NNW 05:52:13 77° WSW 05:57:51 10° SSE
SKYMED 2 4.5 05:52:19 10° SSW 05:56:00 27° W 05:59:42 10° NW
CSL-04 Debris 4.2 05:52:14 10° NNE 05:57:40 87° WNW 06:03:04 10° SSW
Cosmos 2315 Rocket 4.2 05:54:42 10° SSW 06:00:55 55° W 06:07:09 10° N
